Temperature
17 17 17 17 17 17 17 17 17 17 17 16 16 16 16 15 15 15 15 15 15 15 15 15 15 15 15 15 15 15 15 15 15 15 14 14 14 14
16 16 16 17 16 16 16 16 16 17 17 17 16 16 15 15 15 15 15 15 15 15 15 15 15 15 15 15 15 15 15 15 14 14 14 14 14 14
16 16 16 16 16 16 16 16 16 16 16 16 16 15 15 15 15 15 15 15 15 15 15 15 15 15 15 14 14 14 14 14 14 14 14 14 14 14
16 16 15 15 15 16 16 16 16 15 16 15 15 15 15 15 15 15 15 15 15 15 15 15 15 15 14 14 14 14 14 14 14 14 14 14 14 14
15 15 15 15 15 15 15 15 15 15 15 15 15 15 15 15 15 15 15 15 14 15 15 15 15 14 14 14 14 14 14 14 14 14 14 14 14 14
15 15 15 15 15 15 15 15 15 15 15 15 15 15 15 15 14 14 14 14 14 14 14 14 14 14 14 14 14 14 14 14 14 14 14 14 14 13
15 15 15 15 15 15 15 15 15 15 15 15 15 15 15 14 14 14 14 14 14 14 14 14 14 14 14 14 14 14 14 14 13 13 13 13 13 13
15 15 15 15 15 15 15 15 15 14 15 15 15 15 14 14 14 14 14 14 14 14 14 14 14 14 13 13 13 13 13 14 13 13 13 13 13 13
15 15 15 15 15 14 15 15 15 15 15 14 14 14 14 14 14 14 14 14 14 14 13 14 14 14 13 13 13 13 13 13 13 13 13 13 13 13
15 15 15 14 14 14 14 14 14 14 14 14 14 14 14 14 14 14 13 13 13 13 13 13 13 13 13 13 13 13 13 13 13 13 13 13 12 12
15 14 14 14 14 14 14 14 14 14 14 14 14 14 14 14 13 13 13 13 14 14 13 13 13 13 13 13 13 13 13 12 12 12 12 12 12 12
14 14 14 14 14 14 14 14 14 14 13 14 14 14 14 14 13 13 13 13 13 14 13 13 13 13 13 13 12 12 12 12 12 12 12 12 12 12
14 14 14 14 14 14 14 14 14 13 13 13 13 13 13 13 13 13 13 13 13 13 13 12 12 13 13 13 12 12 12 12 12 12 12 12 12 11
14 14 14 14 14 14 14 14 14 13 13 13 13 13 13 13 13 12 12 12 12 12 12 12 12 12 12 12 12 12 12 12 11 11 11 11 11 11
14 14 14 14 13 13 13 13 13 13 13 13 13 13 12 12 12 12 12 12 12 12 12 12 11 11 11 12 12 12 12 11 11 11 11 11 11 11
13 13 13 13 13 13 13 13 12 12 12 12 12 12 12 12 12 12 12 12 12 12 12 11 11 11 11 11 11 11 11 11 11 11 10 10 10 10
13 13 13 13 13 13 12 12 12 12 12 12 12 12 12 12 12 11 11 11 11 11 11 11 11 11 11 11 11 11 11 11 11 10 10 10 10 10
13 13 12 12 12 12 12 12 12 12 11 11 11 11 11 11 11 11 11 11 11 11 11 11 11 11 11 11 11 10 10 10 10 10 10 10 10 10
12 12 12 12 12 12 12 11 11 11 11 11 11 11 11 11 11 11 11 10 10 10 10 10 10 10 10 11 11 10 10 10 10 10 10 10 10 10
12 12 12 12 11 11 11 11 11 11 10 10 10 10 10 10 10 10 10 10 10 10 10 10 10 10 10 10 10 10 10 9 9 9 9 9 9 9
12 12 11 11 11 11 10 10 10 10 10 10 10 10 10 10 10 10 10 9 9 9 9 10 9 9 9 9 9 9 9 9 9 9 8 8 9 9
11 11 11 11 10 10 10 10 10 9 9 9 9 9 9 9 9 9 9 9 9 9 9 9 9 9 8 8 9 9 9 9 9 8 8 8 8 8
11 10 10 10 10 9 9 9 9 9 9 9 9 8 8 8 8 8 8 8 8 8 8 8 8 8 8 8 8 8 8 8 8 8 8 8 8 8
Wind_Speed
3 4 3 2 3 3 4 4 4 4 2 2 2 2 2 2 2 3 3 4 6 7 6 6 6 6 6 7 7 7 7 7 7 7 7 8 10 11
2 2 3 3 3 3 3 4 4 4 3 2 1 1 1 2 3 4 4 4 6 7 7 6 6 6 7 7 7 7 7 7 7 7 7 8 8 9
3 3 3 3 3 3 3 4 4 4 4 3 2 1 2 4 2 4 5 5 5 8 8 7 7 7 7 7 7 7 8 8 7 7 7 8 8 8
5 4 4 3 3 4 3 4 4 4 5 4 3 3 3 3 3 5 5 5 4 6 9 8 8 8 8 8 7 8 8 8 8 8 8 8 9 9
5 5 5 4 4 4 5 4 4 4 4 5 5 3 3 3 3 4 5 4 5 5 8 9 10 10 9 9 9 8 8 9 9 9 9 9 9 10
5 5 5 5 5 5 5 5 5 5 4 6 5 4 3 3 4 4 4 4 5 4 4 5 8 11 11 11 10 9 9 10 10 10 10 10 10 10
5 5 5 4 3 4 4 4 4 5 5 5 5 4 4 3 4 4 4 4 4 4 4 5 5 6 7 11 12 10 10 10 11 11 12 11 11 11
5 5 5 5 5 5 4 5 5 6 5 5 5 5 5 5 4 5 5 4 4 3 5 5 4 5 5 5 6 8 9 10 10 11 12 12 12 12
5 5 6 4 5 5 6 8 8 7 7 7 7 7 6 5 5 6 5 6 6 4 4 5 4 5 4 3 7 8 9 9 10 10 12 13 13 13
6 6 5 4 4 4 6 6 6 6 7 7 7 7 7 5 6 7 6 6 7 5 4 6 5 6 5 3 8 9 9 9 9 10 10 12 13 14
6 5 5 5 2 3 6 6 6 6 6 6 6 6 6 5 6 6 5 6 6 5 4 6 6 6 5 5 5 10 10 10 10 10 11 11 11 12
4 5 4 4 2 3 5 6 6 6 6 5 6 7 8 8 9 8 7 7 7 6 3 5 6 5 5 4 4 5 7 9 11 12 12 11 10 9
4 4 2 3 3 5 7 6 6 7 6 7 6 6 5 5 6 7 6 7 7 7 4 5 6 6 6 5 4 4 5 4 5 7 11 12 11 9
4 3 1 3 5 6 6 5 6 7 7 6 6 6 5 5 5 6 6 7 7 8 7 6 6 6 7 7 6 5 5 5 5 5 5 8 11 12
3 2 2 3 5 6 7 7 6 5 6 6 6 6 5 5 5 5 6 7 8 9 8 7 8 7 8 8 8 6 6 6 5 5 5 5 5 6
4 4 6 6 6 5 4 4 5 4 5 6 6 6 6 5 5 5 5 6 6 7 7 8 8 8 9 9 8 8 7 6 6 6 5 6 6 6
3 3 4 3 4 4 4 4 4 4 5 5 6 6 6 6 5 5 5 6 7 7 6 5 6 8 9 9 9 8 7 7 6 5 6 7 7 7
3 3 3 4 4 4 4 4 4 4 5 6 6 6 7 6 6 6 5 6 7 7 6 5 5 5 7 7 7 9 8 7 7 6 6 7 8 7
2 3 3 4 5 4 4 4 4 4 4 5 6 6 7 7 6 6 6 7 7 7 7 6 6 6 8 8 6 6 7 7 7 7 7 7 8 7
2 3 3 4 4 4 5 5 5 5 5 5 6 6 7 7 7 7 7 7 7 7 7 6 7 7 8 9 9 8 8 8 7 7 7 8 8 7
2 2 3 4 4 4 4 5 5 5 5 6 6 6 6 7 7 7 7 7 8 8 8 7 6 6 7 7 8 8 6 7 7 7 8 8 9 8
3 3 3 4 4 4 4 5 5 6 6 6 6 6 6 6 7 8 8 7 7 7 8 8 7 5 6 7 9 9 8 6 7 11 11 10 8 8
3 3 3 4 4 4 4 5 6 6 6 6 6 6 7 7 7 7 7 7 7 8 8 8 7 6 7 7 8 8 9 8 7 7 7 10 14 14
Wind_Direction
233 225 243 247 252 259 261 267 274 277 265 217 237 224 233 226 225 236 246 199 212 224 229 232 234 235 234 237 240 236 235 236 236 236 234 231 229 229
240 258 264 261 259 256 253 255 260 268 274 275 249 253 290 265 213 245 249 205 206 212 220 229 233 239 239 240 240 239 237 235 233 236 237 232 227 224
233 230 238 263 258 252 251 255 255 258 262 267 269 259 250 267 264 258 253 246 220 203 214 226 233 236 238 238 238 239 239 236 234 236 238 232 226 220
231 231 236 238 245 259 259 257 258 255 258 264 264 255 244 245 255 261 260 255 254 189 203 219 226 229 232 233 235 237 237 236 236 235 236 233 227 221
235 233 237 240 248 255 258 259 257 253 254 257 260 257 254 252 251 256 257 261 258 209 200 214 220 223 225 227 230 235 238 239 237 234 234 233 230 224
234 236 239 237 240 249 251 255 260 261 255 258 262 259 251 251 257 264 262 251 263 256 238 230 214 217 221 223 226 230 236 239 239 236 232 229 228 224
228 234 238 236 256 262 268 263 260 257 254 254 261 262 258 257 264 269 274 269 258 255 259 243 223 227 218 218 218 223 229 234 237 236 231 229 228 226
233 240 233 220 224 229 256 272 277 265 269 269 267 270 267 263 268 272 278 276 273 257 262 262 253 250 242 232 191 209 226 234 238 235 232 232 230 226
237 245 251 228 223 239 227 227 240 245 255 266 276 280 278 269 267 265 268 274 278 277 268 268 264 262 253 216 173 201 221 233 238 237 234 230 227 225
237 237 245 250 251 256 254 250 252 244 238 247 263 272 277 280 264 266 269 262 261 252 251 269 267 268 262 237 179 192 212 226 232 233 234 230 226 224
240 237 240 243 240 255 252 255 261 261 234 230 257 268 282 269 261 263 263 264 269 260 242 265 272 275 268 253 204 195 211 221 225 226 229 228 225 225
239 234 231 253 259 255 254 259 263 268 273 254 242 242 245 234 222 242 260 267 275 273 250 255 270 275 272 259 252 233 226 220 219 219 220 222 220 226
252 250 225 165 225 247 258 262 270 277 267 262 258 254 244 243 237 238 253 265 272 275 273 256 270 268 270 276 266 253 252 250 235 228 217 211 209 219
260 267 238 176 220 235 245 262 268 267 265 265 266 265 262 259 256 255 251 254 264 272 279 270 272 273 275 276 277 265 256 255 253 250 242 207 210 215
255 293 285 243 234 228 230 247 255 262 269 271 271 273 276 276 275 265 255 247 251 259 257 253 263 270 270 273 274 270 271 267 256 253 249 244 238 228
250 238 228 233 239 259 253 238 249 263 270 274 278 282 286 279 270 273 273 269 268 267 248 241 248 258 264 268 270 270 270 268 262 259 260 259 247 240
272 258 255 256 255 260 266 268 267 265 267 276 282 285 283 279 274 271 267 269 268 272 271 257 247 246 254 263 266 264 264 264 263 260 257 261 257 246
264 260 273 279 279 282 283 280 273 274 279 279 279 281 281 279 279 279 276 272 273 276 276 273 269 269 265 258 249 264 267 270 268 259 257 262 264 256
239 271 278 283 288 292 292 294 296 292 287 284 283 282 281 278 277 278 276 276 276 276 276 271 267 266 269 274 266 238 267 276 272 268 264 265 267 267
257 279 289 294 297 301 303 304 302 299 294 293 290 287 287 287 284 283 281 282 284 285 283 279 271 268 270 276 284 280 240 258 269 271 273 273 272 271
282 290 298 301 303 306 306 304 302 303 306 300 293 293 295 294 291 289 285 280 277 281 281 281 284 275 279 277 274 275 270 235 239 261 272 273 273 270
296 301 311 313 310 306 301 301 300 298 298 296 301 301 297 296 295 293 291 289 285 283 286 289 290 279 276 273 273 278 280 280 251 235 242 249 263 266
298 307 309 305 303 297 299 301 299 300 306 309 308 305 303 301 298 295 294 292 291 289 291 293 293 286 281 277 276 277 279 280 279 273 263 235 232 245
Height
1542 1541 1541 1542 1542 1542 1542 1542 1542 1541 1541 1540 1540 1539 1538 1537 1536 1535 1535 1533 1533 1532 1531 1531 1530 1530 1530 1530 1530 1530 1530 1530 1531 1531 1531 1532 1533 1534
1539 1539 1539 1540 1540 1539 1539 1539 1539 1539 1538 1538 1537 1537 1536 1536 1534 1533 1532 1531 1530 1530 1529 1529 1528 1528 1528 1528 1527 1527 1527 1527 1527 1528 1528 1529 1530 1531
1537 1537 1537 1537 1537 1537 1537 1537 1537 1537 1536 1535 1535 1534 1533 1532 1532 1531 1531 1529 1529 1527 1527 1526 1526 1525 1525 1525 1524 1524 1524 1524 1524 1524 1525 1526 1526 1527
1535 1535 1535 1535 1534 1535 1535 1535 1534 1534 1534 1533 1532 1532 1530 1530 1529 1528 1528 1528 1526 1525 1524 1523 1523 1522 1522 1522 1521 1521 1521 1520 1520 1521 1521 1522 1522 1523
1532 1532 1532 1532 1532 1532 1532 1532 1532 1532 1531 1531 1530 1529 1528 1528 1526 1526 1525 1524 1524 1523 1521 1520 1520 1519 1519 1518 1518 1518 1517 1517 1517 1517 1517 1518 1518 1519
1529 1529 1529 1529 1529 1529 1529 1529 1529 1529 1529 1528 1528 1527 1526 1525 1524 1524 1523 1522 1521 1520 1519 1517 1516 1516 1515 1515 1514 1514 1513 1513 1513 1513 1513 1513 1514 1514
1526 1526 1526 1526 1526 1526 1527 1527 1527 1526 1526 1526 1525 1524 1524 1523 1522 1521 1520 1519 1518 1517 1516 1515 1514 1513 1512 1511 1510 1510 1509 1509 1509 1509 1509 1509 1510 1510
1523 1523 1523 1523 1523 1523 1523 1523 1523 1523 1523 1523 1523 1522 1521 1520 1519 1518 1518 1516 1515 1515 1513 1512 1512 1510 1509 1508 1506 1506 1505 1505 1505 1505 1505 1505 1505 1506
1520 1520 1521 1521 1520 1520 1520 1520 1520 1519 1519 1519 1519 1519 1518 1517 1516 1515 1514 1513 1512 1511 1510 1509 1508 1507 1506 1505 1503 1502 1502 1501 1501 1500 1500 1500 1501 1501
1517 1517 1517 1518 1518 1517 1517 1517 1517 1516 1516 1515 1514 1514 1515 1513 1512 1511 1510 1509 1508 1507 1507 1506 1505 1504 1503 1501 1500 1499 1498 1497 1497 1496 1496 1496 1496 1497
1514 1514 1514 1514 1514 1514 1513 1513 1513 1513 1513 1512 1511 1510 1510 1509 1508 1508 1507 1507 1506 1505 1503 1503 1501 1500 1499 1498 1496 1495 1494 1493 1493 1492 1492 1492 1492 1492
1511 1511 1510 1510 1510 1510 1510 1510 1509 1509 1509 1508 1507 1506 1506 1505 1504 1504 1503 1503 1502 1501 1500 1499 1498 1497 1496 1495 1493 1492 1491 1489 1489 1488 1488 1487 1488 1488
1509 1509 1508 1507 1507 1507 1507 1506 1506 1506 1505 1505 1504 1503 1502 1501 1500 1499 1499 1499 1498 1498 1497 1495 1494 1494 1493 1491 1490 1489 1487 1486 1485 1484 1484 1483 1483 1483
1506 1506 1505 1505 1504 1504 1503 1503 1502 1502 1502 1502 1501 1500 1499 1498 1497 1496 1494 1493 1493 1493 1492 1491 1491 1490 1489 1487 1486 1485 1484 1483 1482 1481 1480 1479 1479 1478
1502 1502 1502 1501 1501 1501 1500 1500 1499 1499 1498 1498 1497 1496 1495 1494 1493 1492 1491 1489 1488 1488 1487 1486 1486 1485 1485 1484 1483 1481 1480 1479 1478 1477 1476 1476 1475 1474
1500 1499 1499 1498 1498 1497 1497 1496 1496 1495 1494 1494 1493 1492 1491 1490 1489 1488 1487 1485 1484 1483 1482 1481 1480 1480 1479 1479 1478 1477 1476 1475 1474 1473 1472 1472 1471 1470
1497 1497 1497 1496 1495 1495 1494 1493 1492 1491 1490 1490 1489 1488 1487 1486 1485 1484 1482 1481 1480 1479 1478 1477 1476 1475 1474 1474 1473 1472 1471 1471 1470 1469 1468 1467 1466 1466
1495 1495 1494 1494 1493 1492 1491 1490 1489 1488 1487 1486 1485 1484 1483 1482 1480 1479 1478 1477 1475 1474 1473 1472 1472 1471 1470 1469 1468 1467 1467 1466 1465 1464 1463 1463 1462 1461
1492 1492 1492 1491 1491 1490 1489 1487 1486 1485 1484 1483 1481 1480 1479 1478 1476 1475 1473 1472 1470 1469 1468 1468 1467 1465 1464 1463 1462 1462 1461 1460 1460 1459 1458 1458 1457 1456
1490 1490 1490 1489 1488 1487 1486 1484 1483 1482 1480 1479 1477 1476 1475 1473 1472 1470 1469 1467 1466 1464 1463 1462 1462 1460 1459 1458 1457 1456 1456 1455 1455 1454 1453 1452 1452 1451
1488 1488 1487 1486 1485 1484 1483 1481 1480 1479 1477 1475 1474 1472 1470 1469 1467 1465 1464 1462 1461 1460 1458 1457 1456 1455 1454 1453 1452 1450 1451 1450 1449 1448 1447 1447 1446 1446
1486 1485 1484 1483 1482 1481 1479 1478 1477 1475 1473 1472 1470 1468 1466 1465 1463 1461 1459 1458 1456 1455 1453 1452 1451 1450 1449 1448 1446 1445 1444 1444 1443 1442 1441 1441 1440 1440
1483 1482 1481 1480 1479 1478 1476 1475 1473 1472 1470 1468 1466 1464 1462 1460 1458 1457 1455 1453 1452 1450 1449 1448 1446 1445 1444 1443 1442 1440 1439 1438 1437 1436 1435 1434 1434 1434